Location: Unspecified
(54.1780°N, 0.0000°E)
Time: 10:52:15
(UTC+00:00)

Explorer 7 - Pass Details

Date: 19 June 2019
Orbit: 485 x 680 km, 50.3° (Epoch: 16 July)

Event Time Altitude Azimuth Distance (km) Brightness Sun altitude
Rises 15:05:37 0° 278° (W) 2,977 11.2 44.0°
Reaches altitude 10° 15:08:10 10° 267° (W) 2,086 10.7 43.7°
Maximum altitude 15:12:17 28° 209° (SSW) 1,247 9.7 43.1°
Drops below altitude 10° 15:16:28 10° 150° (SSE) 2,115 9.8 42.6°
Sets 15:19:05 0° 139° (SE) 3,026 10.4 42.2°
